Flight Track Log - Related Links

Times and Time Zones

All times are in EDT time to prevent confusion due to time zone crossing. See the N403EA flight status page for this flight to view local times or setup timezone preferences in your user account.

Time Position Orientation Groundspeed Altitude Reporting Facility
EDT Latitude Longitude Course Direction KTS MPH feet Rate Location/Type
07:42PM 41.7453 -86.4206 299° West 188 216 3,200  Level Chicago Center
07:43PM 41.7697 -86.4789 299° West 184 212 5,100 1,902 Climbing Chicago Center
07:44PM 41.8294 -86.4983 346° North 186 214 7,100 1,525 Climbing Chicago Center
07:45PM 41.8794 -86.5172 344° North 187 215 8,200 1,220 Climbing Chicago Center
07:46PM 41.9317 -86.5392 343° North 194 223 9,600 1,220 Climbing Chicago Center
07:47PM 41.9839 -86.5592 344° North 194 223 10,700 1,279 Climbing Chicago Center
07:48PM 42.0336 -86.5919 334° Northwest 197 227 12,200 1,561 Climbing Chicago Center
07:49PM 42.0783 -86.6197 335° Northwest 183 211 13,900 1,463 Climbing Chicago Center
07:50PM 42.1247 -86.6461 337° Northwest 181 208 15,200 885 Climbing Chicago Center
07:51PM 42.1903 -86.6847 336° Northwest 220 253 15,700 390 Climbing Chicago Center
07:52PM 42.2522 -86.7239 335° Northwest 241 277 16,000 146 Climbing Chicago Center
07:53PM 42.3156 -86.7617 336° Northwest 248 285 16,000  Level Chicago Center
07:54PM 42.3783 -86.8003 336° Northwest 249 287 16,000  Level Chicago Center
07:55PM 42.4428 -86.8394 336° Northwest 252 290 16,000  Level Chicago Center
07:56PM 42.5072 -86.8781 336° Northwest 253 291 16,000  Level Chicago Center
07:57PM 42.5731 -86.9194 335° Northwest 258 297 16,000  Level Chicago Center
07:58PM 42.6364 -86.9564 337° Northwest 251 289 16,000  Level Chicago Center
07:59PM 42.6994 -86.9975 334° Northwest 250 288 16,000  Level Chicago Center
08:00PM 42.7644 -87.0353 337° Northwest 251 289 16,000  Level Chicago Center
08:01PM 42.8419 -87.0847 335° Northwest 255 293 16,000  Level Chicago Center
08:02PM 42.9081 -87.1250 336° Northwest 258 297 16,000  Level Chicago Center
08:03PM 42.9725 -87.1653 335° Northwest 256 295 16,000  Level Chicago Center
08:04PM 43.0386 -87.2067 335° Northwest 259 298 16,000  Level Chicago Center
08:06PM 43.1036 -87.2458 336° Northwest 256 295 16,000  Level Chicago Center
08:07PM 43.1703 -87.2864 336° Northwest 261 300 16,000  Level Chicago Center
08:08PM 43.2339 -87.3264 335° Northwest 255 293 16,000 -341 Level Chicago Center
08:09PM 43.3033 -87.3692 336° Northwest 261 300 15,300 -541 Descending Chicago Center
08:10PM 43.3725 -87.4144 335° Northwest 276 318 14,900 -443 Descending Chicago Center
08:11PM 43.4400 -87.4556 336° Northwest 270 311 14,400 -492 Descending Chicago Center
08:12PM 43.5058 -87.4975 335° Northwest 264 304 13,900 -443 Descending Chicago Center
08:13PM 43.5833 -87.5467 335° Northwest 265 305 13,500 -393 Descending Chicago Center
08:14PM 43.6500 -87.5894 335° Northwest 266 306 13,100 -439 Descending Chicago Center
08:15PM 43.7164 -87.6314 335° Northwest 264 304 12,600 -488 Descending Chicago Center
08:16PM 43.7811 -87.6739 335° Northwest 260 299 12,100 -1,082 Descending Chicago Center
08:17PM 43.8500 -87.7175 335° Northwest 268 308 10,400 -1,623 Descending Chicago Center
08:18PM 43.9233 -87.7647 335° Northwest 285 328 8,800 -1,033 Descending Chicago Center
08:19PM 43.9917 -87.8089 335° Northwest 274 315 8,300 -541 Descending Chicago Center
08:20PM 44.0556 -87.8503 335° Northwest 259 298 7,700 -732 Descending Chicago Center
08:21PM 44.1203 -87.8933 334° Northwest 258 297 6,800 -1,073 Descending Chicago Center
08:22PM 44.1972 -87.9428 335° Northwest 261 300 5,500 -1,426 Descending Chicago Center
08:23PM 44.2628 -87.9847 335° Northwest 260 299 3,900 -1,180 Descending Chicago Center
08:24PM 44.3256 -88.0250 335° Northwest 254 292 3,100 -492 Descending Chicago Center
08:25PM 44.3733 -88.0678 327° Northwest 214 246 2,900 -344 Descending Chicago Center
08:26PM 44.4147 -88.1214 317° Northwest 205 236 2,400 -590 Descending Chicago Center
08:27PM 44.4439 -88.1650 313° West 187 215 1,700 -443 Descending Chicago Center
08:28PM 44.4961 -88.1808 348° North 179 206 1,500 -197 Descending Chicago Center
08:30PM 44.4846 -88.1297 335° Northwest  Level Estimated

Login

Don't have an account? Register now (free) for customized features, flight alerts, and more!